map of YMA home
YMA - Airport
Location
City:  Mayo, Yukon, Canada
Name:Mayo Airport
ICAO:CYMA
IATA:YMA

Details
Type:Airport (Airfield)
Use:Public/Civil
Latitude:6337'00"N (63.616667)
Longitude:13552'08"W (-135.868888)
Elevation:1653 ft (504 m)
Variation:20.00E (WMM2015v2 magnetic declination)
-0.32 annual change
Runways:1
Longest:4843 ft (1476 m)

Weather
METAR:CYMA 041400Z 00000KT 6SM -SN VV021 M27/M31 A3011 RMK SN8 SLP273
TAF:CYMA 041138Z 0412/0424 VRB03KT P6SM -SN OVC060
TEMPO 0412/0415 3SM -SN OVC040 PROB30 0412/0413 2SM -SN
FM041500 VRB03KT P6SM BKN060
TEMPO 0415/0424 5SM -SN
RMK NXT FCST BY 041800Z

Related Locations
Nearby:
Farthest:NZSP: 10600 mi / 17059 km
Amundsen-Scott South Pole Station [Jack F. Paulus Skiway], AQ

Find:

   beyond  
but within

Other Information
Maps:
NOTAMs:
Links:
Sources:

  
  • flag of Canada
  • flag of Yukon
  

Airport Diagram

Airport diagram for YMA

Airport diagram PDF

Sectional Chart

Flight Planning
at skyvector.com

Satellite Image

Google Maps Satellite view

 

Copyright © 2004-2019 Karl L. Swartz. All rights reserved.
The Great Circle Mapper name and logo are trademarks of the Great Circle Mapper.
All other trademarks mentioned herein belong to their respective owners.
Please see credits for attibutions and further copyright information.

  Follow gcmap on Facebook Follow gcmap on Twitter GCmap on LinkedIn

hCard Microformat

Geo Microformat